When you browse on this site, cookies collect data to enhance your experience and personalize the content and advertising you see.
Visit our Privacy Policy to learn more. By continuing to use the site, you agree to this use of cookies and data.
  • In Österreich
  • Länderverzeichnis
  • Für 7 Tage
  • Wassertemperatur
  • Satellitenkarten
  • Wetterkarte
  • News
  • Widgets
  • user-avatar
    Anmelden

    Stündliche Wetter Nemirov

    Heute, 17 Februar, Sonntag

    Zeit Temperatur Niederschläge Wind Luftdruck Luftfeuchtigkeit
    00:00 0°C° 0 mm 3 m/S 744 mmHg 91%
    01:00 0°C° 0 mm 3 m/S 744 mmHg 91%
    02:00 0°C° 0 mm 3 m/S 743 mmHg 91%
    03:00 0°C° 0 mm 3 m/S 743 mmHg 90%
    04:00 0°C° 0 mm 3 m/S 743 mmHg 89%
    05:00 -1°C° 0 mm 4 m/S 742 mmHg 88%
    06:00 -1°C° 0 mm 4 m/S 742 mmHg 87%
    07:00 -1°C° 0 mm 4 m/S 742 mmHg 86%
    08:00 0°C° 0 mm 4 m/S 742 mmHg 85%
    09:00 +1°C° 0 mm 5 m/S 742 mmHg 78%
    10:00 +2°C° 0 mm 5 m/S 742 mmHg 72%
    11:00 +5°C° 0 mm 5 m/S 741 mmHg 66%
    12:00 +5°C° 0 mm 6 m/S 741 mmHg 64%
    13:00 +7°C° 0 mm 6 m/S 741 mmHg 62%
    14:00 +7°C° 0 mm 6 m/S 741 mmHg 60%
    15:00 +7°C° 0 mm 5 m/S 741 mmHg 64%
    16:00 +6°C° 0 mm 5 m/S 740 mmHg 67%
    17:00 +5°C° 0 mm 5 m/S 740 mmHg 71%
    18:00 +3°C° 0 mm 5 m/S 740 mmHg 74%
    19:00 +2°C° 0 mm 5 m/S 740 mmHg 77%
    20:00 +2°C° 0 mm 5 m/S 741 mmHg 80%
    21:00 +1°C° 0 mm 5 m/S 741 mmHg 83%
    22:00 +1°C° 0 mm 4 m/S 741 mmHg 86%
    23:00 0°C° 0 mm 4 m/S 741 mmHg 89%

    Morgen, 18 Februar, Montag

    Zeit Temperatur Niederschläge Wind Luftdruck Luftfeuchtigkeit
    00:00 +1°C° 0 mm 4 m/S 742 mmHg 89%
    01:00 +1°C° 0 mm 4 m/S 742 mmHg 90%
    02:00 +2°C° 0 mm 3 m/S 742 mmHg 91%
    03:00 +2°C° 0 mm 3 m/S 742 mmHg 90%
    04:00 +2°C° 0 mm 3 m/S 742 mmHg 89%
    05:00 +1°C° 0 mm 3 m/S 742 mmHg 87%
    06:00 +1°C° 0 mm 3 m/S 742 mmHg 88%
    07:00 +1°C° 0 mm 3 m/S 743 mmHg 88%
    08:00 +1°C° 0 mm 3 m/S 743 mmHg 88%
    09:00 +2°C° 0 mm 3 m/S 743 mmHg 86%
    10:00 +2°C° 0 mm 3 m/S 743 mmHg 83%
    11:00 +3°C° 0 mm 4 m/S 744 mmHg 80%
    12:00 +3°C° 0 mm 3 m/S 744 mmHg 77%
    13:00 +4°C° 0 mm 3 m/S 744 mmHg 74%
    14:00 +4°C° 0 mm 3 m/S 744 mmHg 71%
    15:00 +3°C° 0 mm 3 m/S 744 mmHg 72%
    16:00 +4°C° 0 mm 2 m/S 744 mmHg 74%
    17:00 +4°C° 0 mm 2 m/S 744 mmHg 76%
    18:00 +4°C° 0 mm 1 m/S 744 mmHg 78%
    19:00 +3°C° 0 mm 1 m/S 744 mmHg 80%
    20:00 +2°C° 0 mm 1 m/S 744 mmHg 82%
    21:00 +2°C° 0 mm 1 m/S 744 mmHg 82%
    22:00 +1°C° 0 mm 1 m/S 744 mmHg 82%
    23:00 +1°C° 0 mm 1 m/S 745 mmHg 82%

    übermorgen, 19 Februar, Dienstag

    Zeit Temperatur Niederschläge Wind Luftdruck Luftfeuchtigkeit
    00:00 +1°C° 0 mm 1 m/S 745 mmHg 82%
    01:00 +1°C° 0 mm 1 m/S 745 mmHg 82%
    02:00 -2°C° 0 mm 2 m/S 745 mmHg 82%
    03:00 -2°C° 0 mm 2 m/S 745 mmHg 81%
    04:00 -2°C° 0 mm 2 m/S 745 mmHg 81%
    05:00 -2°C° 0 mm 2 m/S 745 mmHg 80%
    06:00 -2°C° 0 mm 2 m/S 745 mmHg 78%
    07:00 -2°C° 0 mm 2 m/S 745 mmHg 76%
    08:00 -2°C° 0 mm 3 m/S 745 mmHg 75%
    09:00 -1°C° 0 mm 3 m/S 745 mmHg 67%
    10:00 0°C° 0 mm 3 m/S 745 mmHg 60%
    11:00 +1°C° 0 mm 3 m/S 745 mmHg 53%
    12:00 +1°C° 0 mm 4 m/S 745 mmHg 51%
    13:00 +1°C° 0 mm 4 m/S 745 mmHg 50%
    14:00 +3°C° 0 mm 4 m/S 744 mmHg 48%
    15:00 +1°C° 0 mm 4 m/S 744 mmHg 52%
    16:00 +2°C° 0 mm 3 m/S 743 mmHg 57%
    17:00 +1°C° 0 mm 3 m/S 743 mmHg 61%
    18:00 0°C° 0 mm 3 m/S 743 mmHg 63%
    19:00 -1°C° 0 mm 4 m/S 743 mmHg 65%
    20:00 -2°C° 0 mm 4 m/S 742 mmHg 67%
    21:00 -2°C° 0 mm 4 m/S 742 mmHg 67%
    22:00 -2°C° 0 mm 4 m/S 742 mmHg 68%
    23:00 -2°C° 0 mm 4 m/S 742 mmHg 68%

    20 Februar, Mittwoch

    Zeit Temperatur Niederschläge Wind Luftdruck Luftfeuchtigkeit
    00:00 -2°C° 0 mm 4 m/S 742 mmHg 73%
    01:00 -2°C° 0 mm 4 m/S 741 mmHg 77%
    02:00 -2°C° 0 mm 4 m/S 741 mmHg 81%
    03:00 -2°C° 0 mm 4 m/S 741 mmHg 85%
    04:00 -2°C° 0 mm 4 m/S 740 mmHg 88%
    05:00 -3°C° 0 mm 4 m/S 740 mmHg 91%
    06:00 -2°C° 0 mm 4 m/S 740 mmHg 92%
    07:00 -1°C° 0 mm 3 m/S 740 mmHg 93%
    08:00 -1°C° 0 mm 3 m/S 740 mmHg 94%
    09:00 0°C° 0 mm 4 m/S 740 mmHg 88%
    10:00 +1°C° 0 mm 4 m/S 741 mmHg 83%
    11:00 +4°C° 0 mm 4 m/S 741 mmHg 77%
    12:00 +5°C° 0 mm 4 m/S 740 mmHg 74%
    13:00 +6°C° 0 mm 4 m/S 740 mmHg 70%
    14:00 +7°C° 0 mm 4 m/S 740 mmHg 67%
    15:00 +6°C° 0 mm 4 m/S 740 mmHg 72%
    16:00 +5°C° 0 mm 4 m/S 740 mmHg 77%
    17:00 +4°C° 0 mm 4 m/S 740 mmHg 82%
    18:00 +4°C° 0 mm 4 m/S 741 mmHg 81%
    19:00 +3°C° 0 mm 4 m/S 741 mmHg 79%
    20:00 +3°C° 0 mm 3 m/S 741 mmHg 78%
    21:00 +3°C° 0 mm 3 m/S 741 mmHg 79%
    22:00 +2°C° 0 mm 3 m/S 741 mmHg 79%
    23:00 +2°C° 0 mm 3 m/S 741 mmHg 80%

    21 Februar, Donnerstag

    Zeit Temperatur Niederschläge Wind Luftdruck Luftfeuchtigkeit
    00:00 +2°C° 0 mm 3 m/S 741 mmHg 83%
    01:00 0°C° 0 mm 4 m/S 741 mmHg 85%
    02:00 0°C° 0 mm 4 m/S 741 mmHg 88%
    03:00 0°C° 0 mm 5 m/S 741 mmHg 87%
    04:00 0°C° 0 mm 5 m/S 740 mmHg 87%
    05:00 0°C° 0 mm 5 m/S 740 mmHg 86%
    06:00 0°C° 0 mm 5 m/S 740 mmHg 87%
    07:00 0°C° 0 mm 5 m/S 740 mmHg 89%
    08:00 -1°C° 0 mm 5 m/S 741 mmHg 90%
    09:00 0°C° 0 mm 5 m/S 741 mmHg 87%
    10:00 +1°C° 0 mm 5 m/S 741 mmHg 83%
    11:00 +2°C° 0 mm 6 m/S 741 mmHg 80%
    12:00 +3°C° 0 mm 6 m/S 741 mmHg 75%
    13:00 +4°C° 0 mm 6 m/S 740 mmHg 71%
    14:00 +4°C° 0 mm 7 m/S 740 mmHg 67%
    15:00 +4°C° 0 mm 6 m/S 740 mmHg 71%
    16:00 +5°C° 0 mm 5 m/S 740 mmHg 76%
    17:00 +3°C° 0 mm 5 m/S 740 mmHg 80%
    18:00 +4°C° 0 mm 4 m/S 740 mmHg 82%
    19:00 +4°C° 0 mm 4 m/S 740 mmHg 83%
    20:00 +4°C° 0 mm 4 m/S 740 mmHg 85%
    21:00 +3°C° 0.1 mm 4 m/S 740 mmHg 85%
    22:00 +3°C° 0.1 mm 4 m/S 740 mmHg 86%
    23:00 +3°C° 0.1 mm 4 m/S 740 mmHg 86%

    22 Februar, Freitag

    Zeit Temperatur Niederschläge Wind Luftdruck Luftfeuchtigkeit
    00:00 +3°C° 0.2 mm 4 m/S 740 mmHg 87%
    01:00 +3°C° 0.2 mm 4 m/S 740 mmHg 88%
    02:00 +3°C° 0.2 mm 4 m/S 740 mmHg 88%
    03:00 +3°C° 0.2 mm 3 m/S 739 mmHg 90%
    04:00 +2°C° 0.2 mm 3 m/S 739 mmHg 91%
    05:00 +2°C° 0.2 mm 3 m/S 739 mmHg 92%
    06:00 +2°C° 0.2 mm 3 m/S 739 mmHg 93%
    07:00 +3°C° 0.2 mm 2 m/S 739 mmHg 94%
    08:00 +3°C° 0.2 mm 2 m/S 739 mmHg 94%
    09:00 +2°C° 0.2 mm 3 m/S 739 mmHg 92%
    10:00 0°C° 0.2 mm 4 m/S 739 mmHg 90%
    11:00 0°C° 0.2 mm 5 m/S 739 mmHg 88%
    12:00 -1°C° 0.2 mm 5 m/S 739 mmHg 86%
    13:00 -3°C° 0.2 mm 6 m/S 739 mmHg 84%
    14:00 -3°C° 0.2 mm 6 m/S 739 mmHg 82%
    15:00 -4°C° 0.3 mm 7 m/S 739 mmHg 82%
    16:00 -6°C° 0.3 mm 7 m/S 740 mmHg 82%
    17:00 -7°C° 0.3 mm 8 m/S 740 mmHg 82%
    18:00 -8°C° 0.3 mm 8 m/S 741 mmHg 81%
    19:00 -8°C° 0.3 mm 8 m/S 742 mmHg 79%
    20:00 -10°C° 0.3 mm 9 m/S 743 mmHg 78%
    21:00 -11°C° 0.1 mm 9 m/S 744 mmHg 74%
    22:00 -11°C° 0.1 mm 8 m/S 746 mmHg 70%
    23:00 -12°C° 0.1 mm 8 m/S 747 mmHg 66%
    Mehr zeigen